Hourly Weather Roundup
Issued by NWS Central Illinois

Home | Current Version | Previous Version | Text Only | Print | Product List | Glossary On
Versions: 1 2 3 4 5 6 7 8 9 10 11 12 13 14 15 16 17 18 19 20 21 22 23 24 25 26 27 28 29 30 31 32 33 34 35 36 37 38 39 40 41 42 43 44 45 46 47 48 49 50
828
NZUS43 KILX 201710
HWRILX

AREA WEATHER ROUNDUP
NATIONAL WEATHER SERVICE, LINCOLN IL
1100 AM CST FRI JAN 20 2017


CITY           SKY/WX    TMP DP  RH WIND       PRES   REMARKS
BLOOMINGTON    CLOUDY    44  44 100 SW9       29.67S
CHAMPAIGN      CLOUDY    47  45  93 SW6       29.68S
DANVILLE       CLOUDY    46  46  99 SW10      29.66F
DECATUR        CLOUDY    47  33  58 SW7       29.68S HAZE
EFFINGHAM      CLOUDY    51  51 100 SE3       29.71F
FLORA          CLOUDY    54  49  85 S12       29.72S
GALESBURG      CLOUDY    40  40 100 S9        29.66R FOG     WCI  34
JACKSONVILLE   CLOUDY    46  46  98 CALM      29.65F
LACON          CLOUDY    41  41 100 S5        29.65S FOG
LAWRENCEVILLE  CLOUDY    54  49  83 SW14      29.73R
LITCHFIELD     CLOUDY    48  48 100 S9        29.67F
$$


CITY           SKY/WX    TMP DP  RH WIND       PRES   REMARKS
LINCOLN        CLOUDY    46  46 100 S7        29.67F
MACOMB         CLOUDY    42  42 100 S6        29.67F FOG
MATTOON        CLOUDY    48  48 100 S9        29.68F FOG
MT CARMEL AP   CLOUDY    53  49  84 SW9       29.72F
OLNEY-NOBLE AP CLOUDY    52  52 100 SW8       29.72F
PARIS          CLOUDY    49  49 100 S6        29.70F FOG
PEORIA         CLOUDY    43  43 100 S3        29.66S FOG
PONTIAC        CLOUDY    42  42 100 SW5       29.68S FOG
RANTOUL        CLOUDY    48  48  99 SW10      29.69R
SPRINGFIELD    CLOUDY    48  47  96 S5        29.68S FOG
TAYLORVILLE    FOG       47  47 100 S5        29.68F VSB 1/2
$$

...REGIONAL REPORTS...


CITY           SKY/WX    TMP DP  RH WIND       PRES   REMARKS
CHICAGO O`HARE CLOUDY    40  38  93 CALM      29.65R FOG
KANKAKEE       CLOUDY    41  40  97 CALM      29.67S FOG
MOLINE         CLOUDY    41  38  89 S3        29.65S FOG
MOUNT STERLING FOG       44  44 100 E3        29.63F VSB 1/4
MOUNT VERNON   CLOUDY    54  50  86 S8        29.71F
PITTSFIELD     CLOUDY    48  48  99 SE7       29.65F
QUINCY         CLOUDY    45  45 100 SE5       29.62F
ROCKFORD       CLOUDY    40  38  93 SE6       29.66F FOG
$$


CITY           SKY/WX    TMP DP  RH WIND       PRES   REMARKS
BURLINGTON     FOG       40  40 100 CALM      29.63F VSB 1/4
CEDAR RAPIDS   CLOUDY    37  37 100 SE5       29.62F FOG     WCI  33
DES MOINES     CLOUDY    39  38  96 S8        29.62R FOG     WCI  33
KIRKSVILLE     CLOUDY    46  46 100 E10       29.59F FOG
OTTUMWA        FOG       39  38  96 SE6       29.62S VSB 1/4 WCI  35
ST LOUIS       CLOUDY    53  48  83 S9        29.66F
$$


CITY           SKY/WX    TMP DP  RH WIND       PRES   REMARKS
TERRE HAUTE    CLOUDY    51  49  92 SW7       29.70F FOG
EVANSVILLE     PTSUNNY   58  50  75 SW12      29.74F
INDIANAPOLIS   CLOUDY    53  51  93 SW12      29.68F
LAFAYETTE      CLOUDY    49  47  93 SW9       29.67S
MADISON        FOG       36  35  96 E6        29.67R VSB 1   WCI  31
MILWAUKEE      CLOUDY    39  37  92 E8        29.68R FOG     WCI  33
$$






USA.gov is the U.S. government's official web portal to all federal, state and local government web resources and services.